CZ-3B R/B, 62805

Orbit data source: Space-Track

CZ-3B R/B, 62805 is space debris in HEO originally from a launch on Thu, 23 Jan 2025 UTC launched from the Xichang Space Center, China (XSC). Debris objects in space refer to the collection of defunct objects orbiting the Earth. Examples of debris include non-operational satellites, rocket bodies, and fragments generated from explosions, collisions, or faulty payload assembly.

Loading next visibility...
CZ-3B R/B details
Identifier
62805, 2025-017B
Orbit
HEO
Last TLE update1 day ago
Origin
Flag of CNCASC (CN / PRC)
ManufacturerCALT
MissionSpacecraft
Bus & MotorCZ-3A STAGE 3, Unknown motor
Mass~2,800 kg wet, ~2,800 kg dry
Launch date (UTC)
2025-01-23 (2 weeks ago)
Launch vehicleUnknown
Launch site
Xichang Space Center, China (XSC)
Object type
Payload
Rocket body
Debris
Shape & HBRUnknown
Radar Cross SectionRCS unknown

Expand to show TLE details & history

TLE from 1 day ago
0 CZ-3B R/B
1 62805U 25017B   25035.15265426  .00107769  68864-7  17119-2 0  9992
2 62805  28.4454 348.9603 7229121 186.3324 153.3145  2.39789477   271
Epoch: 2025-02-04T03:39Z
Definitive object data (Epoch: 2025-02-04T03:39:49.328Z)
Latitude-0°
Longitude159.44213°
Altitude33,627.538 km
Speed1.739 km/s
True Right ascension23h 15m 50s
True Declination0° 00' 00"
Sunlit
Object was in daylight at TLE epoch
Visualization TLE readout
Latitude28.43918°
Longitude-115.82736°
Altitude6,714.698 km
Speed6.632 km/s
Apparent Right ascension03h 40m 32s
Apparent Declination15° 38' 15"
Sunlit
Object is in daylight
Visualization observer readout
Local Sidereal Time06:54:14
Azimuth254.239° W
Elevation41.537°
Doppler factor1
Orbital elements
Apogee altitude34,251.907 km
Perigee altitude156.203 km
Semi-major axis23,582.192 km
Eccentricity0.7229121
Inclination28.4454°
RAAN348.9603°
Arg. of periapsis186.3324°
True anomaly173.72406°
Mean anomaly153.3145°
Eccentric anomaly164.43131°
Mean motion0.59933 °/min
BSTAR0.0017119
Orbital period600.67 mins
Loading maneuver chart data...
Loading historical data...
Loading historical data...
Loading historical data...
Loading historical data...
Loading historical data...
Loading historical data...
Loading historical data...
Other satellites on launch #17 in the year 2025 (2025-01-23 UTC)

CZ-3B R/B Visibility forecast

Observer location: undefined°, undefined

Span
Click to sort rows by Start time (UTC) header in descending order
Start Az.
Max El. time (UTC)
Max El. Az.
Max El.
End time (UTC)
End Az.
21 mins2025-02-05 04:52:19.655Z254.142° W2025-02-05 05:04:19.655Z213.32° SW38.347°2025-02-05 05:13:19.655Z138.927° SSE
496 mins2025-02-05 16:46:19.655Z144.348° SSE2025-02-06 00:15:19.655Z159.846° S42.326°2025-02-06 01:02:19.655Z92.676° ESE
|